User: anonymous   Login
Location: Contre
(49.7477°N, 2.0963°E)
Time: 17:04:05
(UTC+00:00)
Language:

CZ-4 R/B - Orbit

View from above orbital plane
View from above orbital plane
View from above satellite
View from above satellite

Ground track
Ground track

The orbit data is extracted from the following two-line orbital elements,

1 29507U 06046C   24166.83203814  .00004131  00000-0  27065-3 0  9999
2 29507  97.6430 202.8985 0038507 285.6137  74.0842 15.07673325964365
Epoch (UTC): 14 June 2024 19:58:08
Eccentricity: 0.0038507
inclination: 97.6430°
perigee height: 516 km
apogee height: 570 km
right ascension of ascending node: 202.8985°
argument of perigee: 285.6137°
revolutions per day: 15.07673325
mean anomaly at epoch: 74.0842°
orbit number at epoch: 96436

The dashed part of the orbit path shows where the satellite is in the earth's shadow,  

DLR